This is the latest recevied weather packets stored in our database for station/object KM4NDN. If no packets are shown the sender has not sent any weather packets the latest 10 day(s).
| Time | Temp. | Humidity | Pressure | Rain* | Wind** | Luminosity | Snow |
|---|---|---|---|---|---|---|---|
| 1778084724 | 12.78° C | 44% | 1011 hPa | 0 mm | - | 465 W/m² | - |
| 1778084421 | 12.22° C | 50% | 1011 hPa | 0 mm | - | 886 W/m² | - |
| 1778084119 | 12.22° C | 45% | 1011 hPa | 0 mm | - | 729 W/m² | - |
| 1778083815 | 12.22° C | 48% | 1010.8 hPa | 0 mm | - | 827 W/m² | - |
| 1778083513 | 12.22° C | 50% | 1010.8 hPa | 0 mm | - | 827 W/m² | - |
| 1778083210 | 12.22° C | 46% | 1010.5 hPa | 0 mm | - | 829 W/m² | - |
| 1778082908 | 12.22° C | 50% | 1010.6 hPa | 0 mm | - | 668 W/m² | - |
| 1778081794 | 11.67° C | 58% | 1010.5 hPa | 0 mm | - | 692 W/m² | - |
| 1778081491 | 12.22° C | 62% | 1010.4 hPa | 0 mm | - | 735 W/m² | - |
| 1778081189 | 11.67° C | 59% | 1010.5 hPa | 0 mm | - | 736 W/m² | - |
| 1778080886 | 11.67° C | 60% | 1010.3 hPa | 0 mm | - | 730 W/m² | - |
| 1778080585 | 11.67° C | 57% | 1010.2 hPa | 0 mm | - | 715 W/m² | - |
| 1778080281 | 11.67° C | 59% | 1010 hPa | 0 mm | - | 637 W/m² | - |
| 1778079978 | 11.67° C | 63% | 1010.2 hPa | 0 mm | - | 661 W/m² | - |
| 1778079675 | 11.67° C | 63% | 1010 hPa | 0 mm | - | 616 W/m² | - |
| 1778079372 | 11.67° C | 61% | 1009.7 hPa | 0 mm | - | 616 W/m² | - |
| 1778079069 | 11.67° C | 63% | 1009.9 hPa | 0 mm | - | 662 W/m² | - |
| 1778078766 | 11.67° C | 65% | 1009.8 hPa | 0 mm | - | 670 W/m² | - |
| 1778078462 | 11.67° C | 66% | 1009.6 hPa | 0 mm | - | 645 W/m² | - |
| 1778078161 | 11.11° C | 63% | 1009.6 hPa | 0 mm | - | 630 W/m² | - |
| 1778077858 | 11.11° C | 67% | 1009.4 hPa | 0 mm | - | 446 W/m² | - |
| 1778077556 | 11.11° C | 68% | 1009.4 hPa | 0 mm | - | 478 W/m² | - |
| 1778077254 | 11.11° C | 68% | 1009.6 hPa | 0 mm | - | 599 W/m² | - |
| 1778076951 | 11.11° C | 69% | 1009.7 hPa | 0 mm | - | 581 W/m² | - |
| 1778076650 | 11.11° C | 72% | 1009.2 hPa | 0 mm | - | 591 W/m² | - |
* Rain latest hour (hover to see other rain measurements)
** Current wind speed in m/s (hover to see current wind gust speed)